This demonstration page uses our WeatherBlox Daily Observations layout. Learn more.

Hourly Observations for June 27, 2019

Temp ( °F °C ) Dew Point ( °F °C ) Humidity (%) Winds ( mph kmh ) Pressure ( in mb ) Visibility ( mi km ) Precip ( " mm )
12:15 am 00:15 Clear 72 22 70 21 94 94 W 5 7 30.12 1020 10 16.09344 0 0
12:35 am 00:35 Clear 72 22 70 21 94 94 W 5 7 30.15 1021 10 16.09344 0 0
12:55 am 00:55 Clear 72 22 70 21 94 94 W 3 6 30.15 1021 10 16.09344 0 0
1:15 am 01:15 Clear 73 23 70 21 89 89 W 3 6 30.15 1021 10 16.09344 0 0
1:35 am 01:35 Clear 72 22 68 20 88 88 WNW 3 6 30.15 1021 10 16.09344 0 0
1:55 am 01:55 Clear 72 22 68 20 88 88 W 3 6 30.15 1021 10 16.09344 0 0
2:15 am 02:15 Clear 72 22 68 20 88 88 W 3 6 30.15 1021 10 16.09344 0 0
2:35 am 02:35 Clear 72 22 68 20 88 88 W 5 7 30.15 1021 10 16.09344 0 0
2:55 am 02:55 Clear 72 22 68 20 88 88 W 5 7 30.15 1021 10 16.09344 0 0
3:15 am 03:15 Clear 70 21 68 20 94 94 WNW 6 9 30.15 1021 10 16.09344 0 0
3:35 am 03:35 Clear 70 21 68 20 94 94 WNW 5 7 30.15 1021 10 16.09344 0 0
3:55 am 03:55 Clear 70 21 68 20 94 94 W 5 7 30.15 1021 10 16.09344 0 0
4:15 am 04:15 Clear 70 21 68 20 94 94 WNW 3 6 30.15 1021 10 16.09344 0 0
4:35 am 04:35 Clear 70 21 68 20 94 94 Calm 30.15 1021 10 16.09344 0 0
4:55 am 04:55 Clear 70 21 68 20 94 94 Calm 30.18 1022 10 16.09344 0 0
5:15 am 05:15 Clear 72 22 68 20 88 88 N 6 9 30.18 1022 10 16.09344 0 0
5:35 am 05:35 Clear 73 23 68 20 83 83 N 5 7 30.18 1022 10 16.09344 0 0
5:55 am 05:55 Sunny 70 21 68 20 94 94 NNW 7 11 30.18 1022 10 16.09344 0 0
6:15 am 06:15 Sunny 73 23 68 20 83 83 NNW 7 11 30.18 1022 10 16.09344 0 0
6:35 am 06:35 Sunny 73 23 68 20 83 83 NNW 7 11 30.18 1022 10 16.09344 0 0
6:55 am 06:55 Sunny 73 23 70 21 89 89 NNW 6 9 30.18 1022 10 16.09344 0 0
7:15 am 07:15 Sunny 77 25 70 21 79 79 NW 7 11 30.18 1022 10 16.09344 0 0
7:35 am 07:35 Sunny 79 26 70 21 74 74 NW 8 13 30.18 1022 10 16.09344 0 0
7:55 am 07:55 Sunny 81 27 70 21 70 70 NNW 7 11 30.21 1023 10 16.09344 0 0
8:15 am 08:15 Sunny 81 27 70 21 70 70 N 6 9 30.21 1023 10 16.09344 0 0
8:35 am 08:35 Sunny 81 27 70 21 70 70 NNW 7 11 30.21 1023 10 16.09344 0 0
8:55 am 08:55 Sunny 82 28 70 21 66 66 N 6 9 30.21 1023 10 16.09344 0 0
9:15 am 09:15 Sunny 82 28 72 22 70 70 NNW 7 11 30.21 1023 10 16.09344 0 0
9:35 am 09:35 Sunny 84 29 70 21 62 62 NNW 5 7 30.21 1023 10 16.09344 0 0
9:55 am 09:55 Sunny 86 30 72 22 62 62 NNW 5 7 30.21 1023 10 16.09344 0 0
10:15 am 10:15 Sunny 86 30 70 21 59 59 Calm 30.21 1023 10 16.09344 0 0
10:35 am 10:35 Partly Cloudy 88 31 72 22 59 59 WNW 3 6 30.21 1023 10 16.09344 0 0
10:55 am 10:55 Partly Cloudy 88 31 70 21 55 55 WNW 5 7 30.21 1023 10 16.09344 0 0
11:15 am 11:15 Sunny 88 31 70 21 55 55 W 5 7 30.21 1023 10 16.09344 0 0
11:35 am 11:35 Sunny 88 31 70 21 55 55 Calm 30.21 1023 10 16.09344 0 0
11:55 am 11:55 Partly Cloudy 90 32 72 22 55 55 W 7 11 30.21 1023 10 16.09344 0 0
12:15 pm 12:15 Partly Cloudy 90 32 70 21 52 52 WNW 5 7 30.21 1023 10 16.09344 0 0
12:35 pm 12:35 Sunny 90 32 70 21 52 52 WNW 5 7 30.21 1023 10 16.09344 0 0
12:55 pm 12:55 Sunny 90 32 70 21 52 52 Calm 30.18 1022 10 16.09344 0 0
1:15 pm 13:15 Sunny 91 33 70 21 49 49 W 7 11 30.15 1021 10 16.09344 0 0
1:35 pm 13:35 Partly Cloudy 91 33 70 21 49 49 WNW 9 15 30.15 1021 10 16.09344 0 0
1:55 pm 13:55 Sunny 93 34 68 20 44 44 W 5 7 30.15 1021 10 16.09344 0 0
2:15 pm 14:15 Sunny 95 35 70 21 44 44 W 8 13 30.15 1021 10 16.09344 0 0
2:35 pm 14:35 Sunny 95 35 70 21 44 44 WSW 7 11 30.15 1021 10 16.09344 0 0
2:55 pm 14:55 Partly Cloudy 91 33 64 18 41 41 Calm 30.12 1020 10 16.09344 0 0
3:15 pm 15:15 Partly Cloudy 95 35 66 19 39 39 W 7 11 30.12 1020 10 16.09344 0 0
3:35 pm 15:35 Sunny 91 33 68 20 46 46 WSW 3 6 30.09 1019 10 16.09344 0 0
3:55 pm 15:55 Sunny 95 35 68 20 41 41 WSW 7 11 30.12 1020 10 16.09344 0 0
4:15 pm 16:15 Partly Cloudy 91 33 68 20 46 46 WNW 6 9 30.12 1020 10 16.09344 0 0
4:35 pm 16:35 Sunny 91 33 70 21 49 49 W 3 6 30.12 1020 10 16.09344 0 0
4:55 pm 16:55 Sunny 93 34 68 20 44 44 WNW 5 7 30.09 1019 10 16.09344 0 0
5:15 pm 17:15 Partly Cloudy 91 33 68 20 46 46 W 7 11 30.12 1020 10 16.09344 0 0
5:35 pm 17:35 Partly Cloudy 82 28 63 17 51 51 NNW 17 28 30.15 1021 10 16.09344 0 0
6:15 pm 18:15 Partly Cloudy 81 27 63 17 54 54 NNE 9 15 30.15 1021 10 16.09344 0 0
6:35 pm 18:35 Partly Cloudy with Nearby Thunderstorms 77 25 66 19 69 69 NW 5 7 30.18 1022 10 16.09344 0 0
6:55 pm 18:55 Mostly Cloudy 79 26 64 18 61 61 S 9 15 30.18 1022 10 16.09344 0 0
7:15 pm 19:15 Mostly Cloudy with Nearby Thunderstorms 79 26 68 20 70 70 S 8 13 30.18 1022 10 16.09344 0 0
7:35 pm 19:35 Mostly Cloudy 79 26 68 20 70 70 SW 3 6 30.18 1022 10 16.09344 0 0
7:55 pm 19:55 Partly Cloudy 79 26 68 20 70 70 W 5 7 30.18 1022 10 16.09344 0 0
8:15 pm 20:15 Sunny 75 24 68 20 78 78 W 5 7 30.15 1021 10 16.09344 0 0
8:35 pm 20:35 Sunny 73 23 68 20 83 83 NW 3 6 30.15 1021 10 16.09344 0 0
8:55 pm 20:55 Clear 73 23 70 21 89 89 W 6 9 30.15 1021 10 16.09344 0 0
9:15 pm 21:15 Clear 73 23 70 21 89 89 Calm 30.18 1022 10 16.09344 0 0
9:35 pm 21:35 Clear 73 23 70 21 89 89 NW 7 11 30.18 1022 10 16.09344 0 0
9:55 pm 21:55 Clear 73 23 70 21 89 89 Calm 30.18 1022 10 16.09344 0 0
10:15 pm 22:15 Clear 75 24 70 21 83 83 NNW 8 13 30.18 1022 10 16.09344 0 0
10:35 pm 22:35 Clear 75 24 70 21 83 83 W 5 7 30.21 1023 10 16.09344 0 0
10:55 pm 22:55 Clear 75 24 70 21 83 83 Calm 30.18 1022 10 16.09344 0 0
11:15 pm 23:15 Clear 75 24 70 21 83 83 SW 5 7 30.18 1022 10 16.09344 0 0
11:35 pm 23:35 Clear 73 23 70 21 89 89 SSW 5 7 30.18 1022 10 16.09344 0 0
11:55 pm 23:55 Clear 72 22 70 21 94 94 SW 6 9 30.18 1022 10 16.09344 0 0

Powered by AerisWeather